Tracking 20232 objects as of 18-Jan-2020
HD Live streaming from Space Station
objects crossing your sky now

COSMOS 2251 DEB

Track COSMOS 2251 DEB now!
10-day predictions


NORAD ID: 36479
Int'l Code: 1993-036BCE
Perigee: 519.1 km
Apogee: 586.1 km
Inclination: 74.0 °
Period: 95.6 minutes
Semi major axis: 6923 km
RCS: 0.0084 m2 (small)
Launch date: June 16, 1993
Source: Commonwealth of Independent States (former USSR) (CIS)
Launch site: PLESETSK MISSILE AND SPACE COMPLEX (PKMTR)

Note: This is SATELLITE DEBRIS
aabbcc
Your satellite tracking list
Your tracking list is empty




NASA's NSSDC Master Catalog

Two Line Element Set (TLE):
1 36479U 93036BCE 20018.41868795 +.00002008 +00000-0 +13377-3 0  9993
2 36479 074.0271 058.8671 0048372 322.2125 037.5671 15.06962835561925
Source of the keplerian elements: AFSPC